Location: Chippewa Lake
(41.0698°N, 81.9010°W)
Time: 02:19:08
(UTC+00:00)

Cosmos 1503 Rocket - Pass Details

Date: 09 May 2021
Orbit: 752 x 791 km, 74.0° (Epoch: 24 June)

Event Time Altitude Azimuth Distance (km) Brightness Sun altitude
Rises 01:47:24 0° 186° (S) 3,185 6.9 -13.0°
Reaches altitude 10° 01:49:47 10° 183° (S) 2,266 6.1 -13.3°
Maximum altitude 01:54:48 58° 105° (ESE) 881 4.0 -14.1°
Drops below altitude 10° 01:59:53 10° 27° (NNE) 2,293 6.6 -14.8°
Sets 02:02:17 0° 24° (NNE) 3,228 7.5 -15.2°
